Flag for Germany Weather past 2 weeks in Aachen, North Rhine-Westphalia, Germany

Now
80 °F

Clear.


Feels Like: 82 °F
Forecast: 73 / 93 °F
Wind: 5 mph from Northeast

Location: Maastricht Airport Zuid Limburg

Current Time: Jul 4, 2015 at 12:50:17 AM

Latest Report: Jul 3, 2015 at 11:00 PM


Visibility: 16 mi

Pressure: 30.13 "Hg

Humidity: 65%

Dew point: 67 °F

Location of AachenLocation

Historic Weather in Aachen — Graph

°F

Aachen temperature yesterday

Maximum temperature yesterday: 90 °F (at 6:00 PM)
Minimum temperature yesterday: 67 °F (at 6:00 AM)
Average temperature yesterday: 78 °F

Past Weeks' High & Low Weather Summary

 TemperatureHumidityPressure
High100 °F (Jul 2, 4:00 PM)99% (Jun 23, 3:00 AM)30.25 "Hg (Jun 23, 3:00 AM)
Low48 °F (Jun 23, 12:00 AM)26% (Jul 2, 4:00 PM)29.74 "Hg (Jun 22, 10:00 PM)
Average66 °F67%30.08 "Hg
* Reported Midnight between Jun 18 and Jun 19 — Jul 3 11:00 PM, Aachen, Weather by CustomWeather, © 2015

Note: Actual official high and low records may vary slightly from our data, if they occured in-between our weather recording intervals... More about our weather records

Advertising

Aachen weather history for previous 24 hours

 ConditionsComfort  
Time TempWeatherWind HumidityBarometerVisibility
11:00 PM
Fri, Jul 3
80 °FClear.5 mph65%30.13 "Hg16 mi
10:00 PM82 °FPassing clouds.6 mph62%30.14 "Hg14 mi
9:00 PM85 °FSunny.6 mph56%30.14 "Hg12 mi
8:00 PM87 °FSunny.5 mph49%30.14 "Hg15 mi
7:00 PM89 °FSunny.5 mph48%30.15 "Hg16 mi
6:00 PM90 °FSunny.3 mph47%30.16 "Hg15 mi
5:00 PM89 °FSunny.2 mph48%30.17 "Hg14 mi
4:00 PM89 °FSunny.3 mph46%30.19 "Hg13 mi
3:00 PM87 °FSunny.2 mph49%30.20 "Hg18 mi
2:00 PM86 °FSunny.3 mph51%30.22 "Hg14 mi
1:00 PM83 °FSunny.N/A55%30.23 "Hg15 mi
12:00 PM80 °FSunny.2 mph57%30.23 "Hg17 mi
11:00 AM78 °FSunny.2 mph62%30.24 "Hg15 mi
10:00 AM75 °FSunny.2 mph69%30.25 "Hg11 mi
9:00 AM73 °FSunny.2 mph75%30.25 "Hg10 mi
8:00 AM70 °FSunny.2 mph81%30.25 "Hg8 mi
7:00 AM68 °FOvercast.1 mph81%30.25 "Hg9 mi
6:00 AM67 °FOvercast.1 mph84%30.24 "Hg8 mi
5:00 AM67 °FOvercast.1 mph87%30.23 "Hg9 mi
4:00 AM68 °FPassing clouds.2 mph85%30.22 "Hg10 mi
3:00 AM68 °FPassing clouds.2 mph86%30.21 "Hg11 mi
2:00 AM69 °FPassing clouds.2 mph82%30.19 "Hg12 mi
1:00 AM71 °FPassing clouds.3 mph76%30.18 "Hg14 mi
12:00 AM73 °FPassing clouds.5 mph71%30.16 "Hg15 mi
Weather by CustomWeather, © 2015

See weather overviewHow to use our weather pages